User: anonymous   Login
Location: Shenandoah County Park
(38.9356°N, 78.4524°W)
Time: 16:55:52
(UTC-04:00)
Language:

Transit 4A - Orbit

View from above orbital plane
View from above orbital plane
View from above satellite
View from above satellite

Ground track
Ground track

The orbit data is extracted from the following two-line orbital elements,

1 00116U 61015A   24205.30879369  .00000315  00000-0  29969-3 0  9996
2 00116  66.8094 148.4183 0071010  35.2404 325.3340 13.92065301200113
Epoch (UTC): 23 July 2024 07:24:39
Eccentricity: 0.0071010
inclination: 66.8094°
perigee height: 869 km
apogee height: 973 km
right ascension of ascending node: 148.4183°
argument of perigee: 35.2404°
revolutions per day: 13.92065301
mean anomaly at epoch: 325.3340°
orbit number at epoch: 20011

The dashed part of the orbit path shows where the satellite is in the earth's shadow,  

DLR